Regional Weather Roundup
Issued by NWS Upton, NY

Current Version | Previous Version | Text Only | Print | Product List | Glossary Off
Versions: 1 2 3 4 5 6 7 8 9 10 11 12 13 14 15 16 17 18 19 20 21 22 23 24 25 26 27 28 29 30 31 32 33 34 35 36 37 38 39 40 41 42 43 44 45 46 47 48 49
000 ASUS41 KOKX 311605 RWROKX REGIONAL WEATHER ROUNDUP NATIONAL WEATHER SERVICE NEW YORK NY 1100 AM EST SAT JAN 31 2015 NOTE: "FAIR" INDICATES FEW OR NO CLOUDS BELOW 12,000 FEET WITH NO SIGNIFICANT WEATHER AND/OR OBSTRUCTIONS TO VISIBILITY. NYZ071-072-176-178-NJZ106-104-311700- NEW YORK CITY METRO AREA CITY SKY/WX TMP DP RH WIND PRES REMARKS CENTRAL PARK SUNNY 18 -5 36 NW14G29 30.15R WCI 4 LAGUARDIA APRT SUNNY 19 2 47 NW24G35 30.14S WCI 2 KENNEDY INTL MOSUNNY 19 -3 38 NW32G40 30.12F WCI -1 NEWARK/LIBERTY SUNNY 19 -1 41 NW21G35 30.16S WCI 3 BRNX BOT. GARD N/A N/A N/A N/A W13 30.13F TETERBORO SUNNY 18 -4 37 NW13G28 30.16R WCI 5 $$ NYZ177-179-078>081-311700- LONG ISLAND NEW YORK CITY SKY/WX TMP DP RH WIND PRES REMARKS FARMINGDALE SUNNY 18 -4 37 NW21G30 30.10R WCI 1 ISLIP SUNNY 18 -2 41 NW25G35 30.03S WCI 0 SHIRLEY SUNNY 19 -2 39 NW24G38 30.05R WCI 2 WESTHAMPTON SUNNY 18 -3 39 NW35G41 30.01R WCI -3 MONTAUK POINT N/A 18 1 47 NW24G37 29.96R WCI 0 $$ NYZ052-065-067-311700- HUDSON VALLEY CITY SKY/WX TMP DP RH WIND PRES REMARKS WHITE PLAINS SUNNY 16 -3 43 NW22G32 30.07R WCI -2 NEWBURGH SUNNY 16 -2 45 NW12G23 30.13R WCI 3 MONTGOMERY SUNNY 16 -6 37 W18G28 30.13R WCI 0 POUGHKEEPSIE SUNNY 16 -9 32 NW10 30.14S WCI 4 ALBANY SUNNY 6 -12 43 W17 30.20S WCI -13 $$ NJZ001-105-106-008-010-013-015-019>022-104-311700- NEW JERSEY CITY SKY/WX TMP DP RH WIND PRES REMARKS NEWARK/LIBERTY SUNNY 19 -1 41 NW21G35 30.16S WCI 3 TETERBORO SUNNY 18 -4 37 NW13G28 30.16R WCI 5 CALDWELL SUNNY 18 -4 37 NW13G26 30.16S WCI 5 MORRISTOWN SUNNY 18 0 45 NW9G32 30.18R WCI 6 SOMERVILLE SUNNY 19 -2 39 NW16G26 30.19R WCI 4 SUSSEX SUNNY 16 -4 41 NW15G26 30.15S WCI 1 ANDOVER N/A 17 -4 39 N8 30.17S WCI 7 TRENTON SUNNY 18 -1 43 NW18G26 30.21S WCI 2 MILLVILLE SUNNY 22 -1 36 NW18G31 30.26R WCI 7 ATLANTIC CITY SUNNY 22 0 38 NW24G33 30.20S WCI 5 WRIGHTSTOWN SUNNY 20 1 42 NW23 30.19S WCI 3 TOMS RIVER SUNNY 19 1 45 NW25G32 30.17F WCI 2 BELMAR SUNNY 19 -2 38 W26G33 30.14S WCI 1 $$ PAZ047>061-062-071-311700- EASTERN PENNSYLVANIA CITY SKY/WX TMP DP RH WIND PRES REMARKS PHILADELPHIA SUNNY 21 -2 36 NW20G29 30.28S WCI 6 ALLENTOWN SUNNY 17 -2 43 W10 30.24R WCI 5 SCRANTON MOSUNNY 13 0 56 NW8G22 30.23S WCI 2 $$ CTZ002-004>006-009-010-012-RIZ004-006-007-MAZ004-011-015-311700- SOUTHERN NEW ENGLAND IN CT CITY SKY/WX TMP DP RH WIND PRES REMARKS BRADLEY INTL MOSUNNY 13 -9 37 NW14G25 30.01S WCI -2 HARTFORD SUNNY 13 -10 35 NW12G23 30.05R WCI -1 DANBURY SUNNY 13 -11 33 NW13G23 30.08R WCI -2 WTRBRY/OXFORD SUNNY 10 N/A N/A NW20G37 30.00S WCI -8 BRIDGEPORT SUNNY 17 -5 37 NW25G44 30.06R WCI -1 MERIDEN SUNNY 15 -9 33 NW24G35 30.03S WCI -4 NEW HAVEN SUNNY 16 -8 34 NW22G39 30.04R WCI -2 CHESTER NOT AVBL GROTON SUNNY 13 -7 40 NW23G35 29.96R WCI -6 WILLIMANTIC SUNNY 14 -8 37 N17G31 29.97R WCI -3 IN RI CITY SKY/WX TMP DP RH WIND PRES REMARKS PROVIDENCE FAIR 17 -6 35 NW20G35 29.89R WCI 1 BLOCK ISLAND SUNNY 18 0 45 N21G31 29.88S WCI 1 WESTERLY SUNNY 16 -7 35 NW15G26 29.93R WCI 1 IN MA CITY SKY/WX TMP DP RH WIND PRES REMARKS BOSTON MOSUNNY 16 -5 39 NW24G38 29.84S WCI -2 WORCESTER SUNNY 10 -9 42 NW24G37 29.83R WCI -10 WESTFIELD SUNNY 13 -8 39 NW22G31 30.00S WCI -6 PROVINCETOWN MOSUNNY 19 10 68 NW31G39 29.76F WCI 0 NANTUCKET CLOUDY 23 10 57 NW31G41 29.74R WCI 5 $$ ANZ330-335-338-340-345-350-353-355-311700- COASTAL MARINE OBSERVATIONS STATION/POSITION TIME SKY/WX TEMP WIND PRES VSBY WAVE AIR SEA DIR/SP/G HT/PER (UTC) (F) (DEG/KT/KT) (MB) (MI) (FT/S) NY HARB ENTRANCE 1600 21 40 310/ 29/ 37 1019.8 6/ 6 4S FIRE IS 1500 37 N/A 5/ 5 20S FIRE ISLAND 1500 41 1018.3 8/ 7 23SW MTP 1600 N/A 9/ 6 HUDSON CANYON NOT AVBL EXECUTION ROCKS 1600 19 33 320/ 21/ 31 N/A WESTERN LI SOUND 1600 17 300/ 19/ 27 N/A 2/ 3 CENTRAL LI SOUND 1500 17 34 310/ 27/ 37 N/A 4/ 4 EASTERN LI SOUND NOT AVBL ROBBINS REEF 1600 18 310/ 25/ 29 1019.7 $$ >>>>>>>>>>>>>>>>>>>>>>>>>>>> KEY <<<<<<<<<<<<<<<<<<<<<<<<<<< > < > SKY/WX - SKY CONDITION/PRESENT WEATHER < > TMP - TEMPERATURE IN FAHRENHEIT < > DP - DEWPOINT IN FAHRENHEIT < > RH - RELATIVE HUMIDITY IN PERCENT < > WIND - DIRECTION AND SPEED IN MPH < > PRES - MEAN SEA LEVEL PRESSURE IN INCHES OF HG < > WCI - WIND CHILL INDEX < > VSB - VISIBILITY IN MILES < > HX - HEAT INDEX < > TC - TEMPERATURE IN CELSIUS < > VRB - VARIABLE WIND DIRECTION < > < >>>>>>>>>>>>>>>>>>>>>>>>>>>> KEY <<<<<<<<<<<<<<<<<<<<<<<<<<<

USA.gov is the U.S. government's official web portal to all federal, state and local government web resources and services.